Regional Weather Roundup
Issued by NWS

Home | Current Version | Previous Version | Graphics & Text | Print | Product List | Glossary On
Versions: 1 2 3 4 5 6 7 8 9 10 11 12 13 14 15 16 17 18 19 20 21 22 23 24 25 26 27 28 29 30 31 32 33 34 35 36 37 38 39 40 41 42 43 44 45 46 47 48 49 50
772
ASUS43 KLMK 271110
RWRKY
KENTUCKY REGIONAL WEATHER ROUNDUP
NATIONAL WEATHER SERVICE LOUISVILLE KY
700 AM EDT THU APR 27 2017

NOTE "FAIR" INDICATES FEW OR NO CLOUDS BELOW 12,000 FEET
WITH NO SIGNIFICANT WEATHER AND/OR OBSTRUCTIONS TO VISIBILITY.

KYZ001>023-026-027-061>063-070>075-271200-
WESTERN AND SOUTH CENTRAL KENTUCKY

CITY           SKY/WX    TMP DP  RH WIND       PRES   REMARKS
PADUCAH        CLOUDY    51  47  86 W6        29.66R
HENDERSON      LGT RAIN  53  50  89 W14       29.61R
OWENSBORO      LGT RAIN  63  57  82 SW18G26   29.57R
HOPKINSVILLE   CLOUDY    63  61  94 SW14      29.61R
BOWLING GREEN  LGT RAIN  64  62  93 SW7       29.61R
GLASGOW        LGT RAIN N/A N/A N/A SW3       29.62R
$$

KYZ024-025-028>034-038-045-046-053-271200-
NORTH CENTRAL KENTUCKY

CITY           SKY/WX    TMP DP  RH WIND       PRES   REMARKS
LOUISVILLE/SDF LGT RAIN  63  60  90 S9        29.57R
LOUISVILLE/LOU LGT RAIN  63  61  93 CALM      29.57S
FORT KNOX      LGT RAIN  61  59  94 CALM      29.57R
$$

KYZ035>037-039>044-047>052-055>060-089>105-271200-
NORTHEAST KENTUCKY

CITY           SKY/WX    TMP DP  RH WIND       PRES   REMARKS
LEXINGTON      CLOUDY    64  58  80 S6        29.60F
COVINGTON      CLOUDY    63  54  72 S8        29.56F
FRANKFORT      CLOUDY    62  56  80 S6        29.57F
$$

KYZ054-064>069-076>088-106>120-271200-
SOUTHEAST KENTUCKY

CITY           SKY/WX    TMP DP  RH WIND       PRES   REMARKS
JACKSON        MOCLDY    65  55  70 VRB3      29.70S
LONDON         LGT RAIN  65  56  72 S9        29.70R
SOMERSET       LGT RAIN  63  55  77 S7        29.65F
MIDDLESBORO    CLOUDY    69  55  60 S10G24    29.76R
MONTICELLO     CLOUDY    63  59  87 SE15G24   29.65S
$$





USA.gov is the U.S. government's official web portal to all federal, state and local government web resources and services.